Weather History for KVYS - February, 2013

Change the Weather History Date:

Wednesday, February 13, 2013

  Actual Average Record
Temperature  
Mean Temperature 36 °F -  
Max Temperature 45 °F 34 °F 61 °F (1990)
Min Temperature 26 °F 16 °F -9 °F (1986)
Degree Days  
Heating Degree Days 30    
Moisture  
Dew Point 29 °F    
Average Humidity 80    
Maximum Humidity 93    
Minimum Humidity 59    
Precipitation  
Precipitation 0.00 in - - ()
Sea Level Pressure  
Sea Level Pressure 29.79 in    
Wind  
Wind Speed 7 mph (WSW)    
Max Wind Speed 13 mph    
Max Gust Speed 18 mph    
Visibility 8 miles    
Events      
Averages and records for this station are not official NWS values.
T = Trace of Precipitation, MM = Missing Value Source: NWS Daily Summary

Daily Weather History Graph

Daily Weather History Graph

Search for Another Location

Airport or City:

Trip Planner

Search our weather history database for the weather conditions in past years. The results will help you decide how hot, cold, wet, or windy it might be!

Date:

Astronomy

Feb. 13, 2013 Rise Set
Actual Time 6:53 AM CST 5:28 PM CST
Civil Twilight 6:25 AM CST 5:56 PM CST
Nautical Twilight 5:52 AM CST 6:29 PM CST
Astronomical Twilight 5:20 AM CST 7:01 PM CST
Moon 8:20 AM CST (2/13) 9:34 PM CST (2/13)
Length of Visible Light 11h 31m
Length of Day
10h 34m
Waxing Crescent, 14% of the Moon is Illuminated
Feb 13
Waxing Crescent
Feb 17
First Quarter
Feb 25
Full
Mar 4
Last Quarter
Mar 11
New

Hourly Weather History & Observations

Time (CST) Temp. Windchill Dew Point Humidity Pressure Visibility Wind Dir Wind Speed Gust Speed Precip Events Conditions
12:15 AM 27.5 °F 20.2 °F 25.7 °F 93% 29.91 in 5.0 mi WSW 6.9 mph - N/A   Clear
12:35 AM 28.0 °F 20.8 °F 25.7 °F 91% 29.90 in 5.0 mi SW 6.9 mph - N/A   Clear
12:55 AM 28.4 °F 23.3 °F 25.9 °F 90% 29.89 in 7.0 mi SW 4.6 mph - N/A   Clear
1:15 AM 28.0 °F 21.7 °F 25.5 °F 90% 29.88 in 5.0 mi SW 5.8 mph - N/A   Clear
1:35 AM 27.7 °F 21.3 °F 25.2 °F 90% 29.88 in 5.0 mi WSW 5.8 mph - N/A   Clear
1:55 AM 27.3 °F 19.9 °F 25.0 °F 91% 29.87 in 5.0 mi WSW 6.9 mph - N/A   Clear
2:15 AM 27.7 °F 21.3 °F 25.0 °F 90% 29.87 in 5.0 mi SW 5.8 mph - N/A   Clear
2:35 AM 27.5 °F 20.2 °F 25.0 °F 90% 29.86 in 5.0 mi WSW 6.9 mph - N/A   Clear
2:55 AM 26.4 °F 18.0 °F 23.9 °F 90% 29.85 in 5.0 mi West 8.1 mph - N/A   Clear
3:15 AM 26.2 °F 17.8 °F 23.9 °F 91% 29.85 in 5.0 mi WSW 8.1 mph - N/A   Clear
3:35 AM 27.0 °F 18.7 °F 24.6 °F 91% 29.84 in 5.0 mi WSW 8.1 mph - N/A   Clear
3:55 AM 27.1 °F 18.9 °F 24.4 °F 90% 29.83 in 7.0 mi SW 8.1 mph - N/A   Clear
4:15 AM 27.7 °F 19.6 °F 24.8 °F 89% 29.83 in 7.0 mi WSW 8.1 mph - N/A   Clear
4:35 AM 27.5 °F 20.2 °F 24.6 °F 89% 29.82 in 7.0 mi SW 6.9 mph - N/A   Clear
4:55 AM 28.0 °F 22.8 °F 24.8 °F 88% 29.81 in 7.0 mi SW 4.6 mph - N/A   Clear
5:15 AM 27.9 °F 21.5 °F 24.8 °F 88% 29.81 in 7.0 mi SW 5.8 mph - N/A   Clear
5:35 AM 28.4 °F 21.2 °F 24.8 °F 86% 29.80 in 7.0 mi SW 6.9 mph - N/A   Clear
5:55 AM 27.5 °F 20.2 °F 24.6 °F 89% 29.79 in 7.0 mi SW 6.9 mph - N/A   Clear
6:15 AM 27.1 °F 19.7 °F 24.4 °F 90% 29.79 in 7.0 mi WSW 6.9 mph - N/A   Clear
6:35 AM 26.8 °F 20.2 °F 24.3 °F 90% 29.79 in 7.0 mi SW 5.8 mph - N/A   Clear
6:55 AM 27.5 °F 21.1 °F 24.8 °F 90% 29.79 in 5.0 mi SW 5.8 mph - N/A   Clear
7:15 AM 27.5 °F 21.1 °F 24.8 °F 90% 29.80 in 5.0 mi SW 5.8 mph - N/A   Clear
7:35 AM 28.2 °F 21.0 °F 25.3 °F 89% 29.80 in 5.0 mi SW 6.9 mph - N/A   Clear
7:55 AM 30.2 °F 24.3 °F 27.1 °F 88% 29.80 in 7.0 mi SW 5.8 mph - N/A   Clear
8:15 AM 31.5 °F 25.8 °F 27.5 °F 85% 29.80 in 7.0 mi SW 5.8 mph - N/A   Clear
8:35 AM 32.2 °F 25.8 °F 28.2 °F 85% 29.80 in 7.0 mi SW 6.9 mph - N/A   Clear
8:55 AM 33.6 °F 27.5 °F 28.9 °F 83% 29.80 in 7.0 mi WSW 6.9 mph - N/A   Clear
9:15 AM 34.3 °F 27.7 °F 28.8 °F 80% 29.80 in 10.0 mi WSW 8.1 mph - N/A   Clear
9:35 AM 35.1 °F 27.9 °F 28.6 °F 77% 29.80 in 10.0 mi WSW 9.2 mph - N/A   Clear
9:55 AM 35.6 °F 29.9 °F 28.6 °F 76% 29.80 in 10.0 mi WSW 6.9 mph - N/A   Clear
10:15 AM 36.9 °F 31.4 °F 29.1 °F 74% 29.79 in 10.0 mi SW 6.9 mph - N/A   Clear
10:35 AM 37.4 °F 33.8 °F 30.2 °F 75% 29.79 in 10.0 mi WSW 4.6 mph - N/A   Clear
10:55 AM 38.5 °F 35.0 °F 29.3 °F 70% 29.78 in 10.0 mi SW 4.6 mph - N/A   Clear
11:15 AM 39.6 °F 34.7 °F 30.7 °F 71% 29.78 in 10.0 mi WSW 6.9 mph - N/A   Clear
11:35 AM 40.5 °F 35.1 °F 30.4 °F 67% 29.78 in 10.0 mi SW 8.1 mph - N/A   Clear
11:55 AM 41.0 °F 37.1 °F 30.6 °F 66% 29.76 in 10.0 mi SW 5.8 mph - N/A   Clear
12:15 PM 42.1 °F 37.7 °F 30.6 °F 64% 29.75 in 10.0 mi SW 6.9 mph - N/A   Clear
12:35 PM 42.8 °F 37.0 °F 30.9 °F 63% 29.75 in 10.0 mi WSW 10.4 mph - N/A   Clear
12:55 PM 43.2 °F 38.4 °F 31.6 °F 64% 29.75 in 10.0 mi WSW 8.1 mph - N/A   Clear
1:15 PM 43.5 °F 38.9 °F 31.6 °F 63% 29.75 in 10.0 mi WSW 8.1 mph - N/A   Clear
1:35 PM 44.1 °F 38.1 °F 30.4 °F 59% 29.74 in 10.0 mi West 11.5 mph 18.4 mph N/A   Clear
1:55 PM 44.6 °F 39.7 °F 31.5 °F 60% 29.74 in 10.0 mi West 9.2 mph - N/A   Clear
2:15 PM 45.0 °F 39.3 °F 31.6 °F 60% 29.73 in 10.0 mi WSW 11.5 mph 16.1 mph N/A   Clear
2:35 PM 45.9 °F 40.8 °F 32.2 °F 59% 29.73 in 10.0 mi West 10.4 mph - N/A   Clear
2:55 PM 45.0 °F 38.9 °F 31.5 °F 59% 29.73 in 10.0 mi West 12.7 mph 16.1 mph N/A   Clear
3:15 PM 43.9 °F 37.5 °F 32.0 °F 63% 29.74 in 10.0 mi West 12.7 mph - N/A   Scattered Clouds
3:35 PM 43.3 °F 37.7 °F 32.0 °F 64% 29.75 in 10.0 mi West 10.4 mph - N/A   Scattered Clouds
3:55 PM 43.0 °F 37.7 °F 32.9 °F 68% 29.75 in 10.0 mi West 9.2 mph - N/A   Scattered Clouds
4:15 PM 42.8 °F 38.0 °F 32.7 °F 68% 29.75 in 10.0 mi West 8.1 mph - N/A   Clear
4:35 PM 42.4 °F 36.1 °F 32.0 °F 67% 29.75 in 10.0 mi West 11.5 mph - N/A   Clear
4:55 PM 41.4 °F 36.2 °F 32.4 °F 70% 29.76 in 10.0 mi West 8.1 mph - N/A   Clear
5:15 PM 39.7 °F 33.2 °F 31.8 °F 73% 29.76 in 10.0 mi West 10.4 mph - N/A   Clear
5:35 PM 37.6 °F 31.6 °F 31.1 °F 77% 29.76 in 10.0 mi West 8.1 mph - N/A   Clear
5:55 PM 35.6 °F 29.2 °F 30.7 °F 82% 29.77 in 10.0 mi West 8.1 mph - N/A   Mostly Cloudy
6:15 PM 36.7 °F 30.5 °F 31.1 °F 80% 29.77 in 10.0 mi West 8.1 mph - N/A   Overcast
6:35 PM 35.6 °F 29.9 °F 30.2 °F 81% 29.77 in 10.0 mi West 6.9 mph - N/A   Mostly Cloudy
6:55 PM 36.7 °F 32.0 °F 30.9 °F 80% 29.78 in 10.0 mi SW 5.8 mph - N/A   Overcast
7:15 PM 36.3 °F 32.5 °F 31.1 °F 81% 29.78 in 10.0 mi SW 4.6 mph - N/A   Overcast
7:35 PM 37.4 °F 33.8 °F 31.1 °F 78% 29.77 in 10.0 mi WSW 4.6 mph - N/A   Overcast
7:55 PM 36.7 °F 32.9 °F 30.6 °F 78% 29.77 in 10.0 mi WSW 4.6 mph - N/A   Overcast
8:15 PM 35.6 °F 31.7 °F 30.9 °F 83% 29.77 in 10.0 mi WSW 4.6 mph - N/A   Mostly Cloudy
8:35 PM 35.6 °F 31.7 °F 30.2 °F 81% 29.77 in 10.0 mi WSW 4.6 mph - N/A   Mostly Cloudy
8:55 PM 34.9 °F 29.0 °F 30.6 °F 84% 29.77 in 10.0 mi WSW 6.9 mph - N/A   Overcast
9:15 PM 34.3 °F 29.2 °F 31.1 °F 88% 29.76 in 10.0 mi WSW 5.8 mph - N/A   Overcast
9:35 PM 34.3 °F 28.4 °F 31.1 °F 88% 29.76 in 10.0 mi WSW 6.9 mph - N/A   Overcast
9:55 PM 33.4 °F 27.3 °F 30.9 °F 90% 29.76 in 10.0 mi WSW 6.9 mph - N/A   Overcast
10:15 PM 34.3 °F 28.4 °F 31.6 °F 90% 29.76 in 10.0 mi West 6.9 mph - N/A   Overcast
10:35 PM 34.3 °F 28.4 °F 31.8 °F 90% 29.75 in 10.0 mi WSW 6.9 mph - N/A   Overcast
10:55 PM 34.3 °F 28.4 °F 32.0 °F 91% 29.75 in 10.0 mi West 6.9 mph - N/A   Overcast
11:15 PM 34.5 °F 27.9 °F 31.8 °F 90% 29.75 in 10.0 mi WSW 8.1 mph - N/A   Overcast
11:35 PM 36.3 °F 30.1 °F 32.0 °F 84% 29.74 in 10.0 mi SW 8.1 mph - N/A   Mostly Cloudy
11:55 PM 36.9 °F 30.1 °F 32.0 °F 83% 29.73 in 10.0 mi SW 9.2 mph - N/A   Overcast